TimeEST,TemperatureF,Dew PointF,Humidity,Sea Level PressureIn,VisibilityMPH,Wind Direction,Wind SpeedMPH,Gust SpeedMPH,PrecipitationIn,Events,Conditions,WindDirDegrees,DateUTC
1:52 AM,-9999,-9999,N/A,29.56,-9999.0,Variable,4.6,-,N/A,,Unknown,0,2013-02-21 06:52:00
2:47 AM,-9999,-9999,N/A,29.57,-9999.0,Variable,5.8,15.0,N/A,,Unknown,0,2013-02-21 07:47:00
4:11 AM,-9999,-9999,N/A,29.59,-9999.0,Variable,5.8,15.0,0.03,,Unknown,0,2013-02-21 09:11:00
4:50 AM,-9999,-9999,N/A,29.61,-9999.0,Variable,5.8,18.4,0.01,,Unknown,0,2013-02-21 09:50:00
7:00 AM,-9999,-9999,N/A,29.67,-9999.0,Variable,4.6,11.5,0.01,,Unknown,0,2013-02-21 12:00:00
7:43 AM,-9999,-9999,N/A,29.70,-9999.0,Variable,5.8,13.8,0.00,,Unknown,0,2013-02-21 12:43:00
8:26 AM,-9999,-9999,N/A,29.73,-9999.0,Variable,5.8,15.0,N/A,,Unknown,0,2013-02-21 13:26:00
9:25 AM,-9999,-9999,N/A,29.76,-9999.0,Variable,4.6,13.8,0.01,,Unknown,0,2013-02-21 14:25:00
10:25 AM,-9999,-9999,N/A,29.79,-9999.0,Variable,4.6,-,0.01,,Unknown,0,2013-02-21 15:25:00
11:32 AM,-9999,-9999,N/A,29.80,-9999.0,Calm,Calm,-,0.02,,Unknown,0,2013-02-21 16:32:00
12:29 PM,-9999,-9999,N/A,29.82,-9999.0,Variable,4.6,16.1,0.21,,Unknown,0,2013-02-21 17:29:00
1:25 PM,31.5,-9999,N/A,29.84,-9999.0,Variable,5.8,13.8,0.42,,Unknown,0,2013-02-21 18:25:00
2:25 PM,31.1,-9999,N/A,29.88,-9999.0,Variable,6.9,16.1,0.19,,Unknown,0,2013-02-21 19:25:00
3:28 PM,-9999,-9999,N/A,29.93,-9999.0,Variable,3.5,13.8,0.01,,Unknown,0,2013-02-21 20:28:00
4:25 PM,28.9,-9999,N/A,29.98,-9999.0,NNW,6.9,20.7,N/A,,Unknown,340,2013-02-21 21:25:00
5:25 PM,-9999,-9999,N/A,30.04,-9999.0,Variable,5.8,18.4,N/A,,Unknown,0,2013-02-21 22:25:00
6:25 PM,-9999,-9999,N/A,30.09,-9999.0,Variable,5.8,18.4,N/A,,Unknown,0,2013-02-21 23:25:00
7:27 PM,25.5,23.9,94,30.14,-9999.0,North,6.9,15.0,0.00,,Unknown,360,2013-02-22 00:27:00
8:25 PM,25.3,23.0,91,30.18,-9999.0,Variable,5.8,-,0.01,,Unknown,0,2013-02-22 01:25:00
9:26 PM,25.0,22.3,89,30.21,-9999.0,Variable,4.6,11.5,0.01,,Unknown,0,2013-02-22 02:26:00
10:25 PM,23.4,22.1,95,30.22,-9999.0,Variable,3.5,-,0.01,,Unknown,0,2013-02-22 03:25:00
11:25 PM,22.3,22.1,99,30.22,-9999.0,Calm,Calm,-,0.01,,Unknown,0,2013-02-22 04:25:00